When you browse on this site, cookies collect data to enhance your experience and personalize the content and advertising you see.
Visit our Privacy Policy to learn more. By continuing to use the site, you agree to this use of cookies and data.
EN

Hourly Weather Linz

Today, 13 August, Thursday

Time Temperature Precipitation Wind Pressure Humidity
00:00 +20°C° 0 mm 1 mps 734 mmHg 79%
01:00 +20°C° 0 mm 1 mps 734 mmHg 82%
02:00 +20°C° 0 mm 1 mps 734 mmHg 83%
03:00 +19°C° 0 mm 1 mps 734 mmHg 84%
04:00 +19°C° 0 mm 1 mps 734 mmHg 85%
05:00 +20°C° 0 mm 1 mps 734 mmHg 83%
06:00 +21°C° 0 mm 1 mps 734 mmHg 81%
07:00 +20°C° 0 mm 0 mps 734 mmHg 79%
08:00 +24°C° 0 mm 1 mps 734 mmHg 75%
09:00 +25°C° 0 mm 1 mps 734 mmHg 70%
10:00 +27°C° 0 mm 1 mps 733 mmHg 65%
11:00 +28°C° 0.1 mm 1 mps 733 mmHg 63%
12:00 +29°C° 0.1 mm 1 mps 733 mmHg 60%
13:00 +30°C° 0.1 mm 1 mps 733 mmHg 57%
14:00 +30°C° 0.5 mm 1 mps 733 mmHg 60%
15:00 +30°C° 0.5 mm 1 mps 732 mmHg 63%
16:00 +29°C° 0.5 mm 1 mps 732 mmHg 65%
17:00 +27°C° 1.6 mm 2 mps 732 mmHg 74%
18:00 +25°C° 1.6 mm 2 mps 732 mmHg 83%
19:00 +21°C° 1.6 mm 3 mps 733 mmHg 92%
20:00 +21°C° 0.2 mm 2 mps 733 mmHg 92%
21:00 +20°C° 0.2 mm 2 mps 733 mmHg 93%
22:00 +21°C° 0.2 mm 1 mps 733 mmHg 93%
23:00 +21°C° 0 mm 1 mps 733 mmHg 92%

Tomorrow, 14 August, Friday

Time Temperature Precipitation Wind Pressure Humidity
00:00 +21°C° 0 mm 1 mps 733 mmHg 92%
01:00 +20°C° 0 mm 1 mps 733 mmHg 91%
02:00 +20°C° 0 mm 1 mps 733 mmHg 91%
03:00 +20°C° 0 mm 1 mps 732 mmHg 91%
04:00 +18°C° 0 mm 0 mps 732 mmHg 91%
05:00 +18°C° 0 mm 0 mps 732 mmHg 90%
06:00 +21°C° 0 mm 1 mps 732 mmHg 89%
07:00 +22°C° 0 mm 1 mps 733 mmHg 88%
08:00 +23°C° 0.2 mm 1 mps 733 mmHg 85%
09:00 +24°C° 0.2 mm 1 mps 733 mmHg 82%
10:00 +25°C° 0.2 mm 2 mps 733 mmHg 78%
11:00 +25°C° 0.6 mm 2 mps 732 mmHg 75%
12:00 +26°C° 0.6 mm 2 mps 732 mmHg 72%
13:00 +27°C° 0.6 mm 2 mps 732 mmHg 70%
14:00 +27°C° 0.7 mm 2 mps 732 mmHg 72%
15:00 +27°C° 0.7 mm 2 mps 732 mmHg 74%
16:00 +26°C° 0.7 mm 3 mps 732 mmHg 76%
17:00 +25°C° 1 mm 3 mps 732 mmHg 80%
18:00 +24°C° 1 mm 3 mps 732 mmHg 83%
19:00 +21°C° 1 mm 3 mps 732 mmHg 87%
20:00 +21°C° 0.5 mm 3 mps 732 mmHg 88%
21:00 +20°C° 0.5 mm 2 mps 733 mmHg 89%
22:00 +20°C° 0.5 mm 2 mps 733 mmHg 91%
23:00 +19°C° 0.1 mm 2 mps 733 mmHg 91%

Day after tomorrow, 15 August, Saturday

Time Temperature Precipitation Wind Pressure Humidity
00:00 +19°C° 0.1 mm 2 mps 733 mmHg 91%
01:00 +19°C° 0.1 mm 2 mps 733 mmHg 92%
02:00 +19°C° 0 mm 2 mps 733 mmHg 92%
03:00 +19°C° 0 mm 1 mps 733 mmHg 92%
04:00 +19°C° 0 mm 1 mps 733 mmHg 92%
05:00 +20°C° 0 mm 1 mps 733 mmHg 91%
06:00 +19°C° 0 mm 2 mps 733 mmHg 90%
07:00 +20°C° 0 mm 2 mps 733 mmHg 89%
08:00 +21°C° 0.1 mm 2 mps 733 mmHg 86%
09:00 +22°C° 0.1 mm 3 mps 733 mmHg 83%
10:00 +24°C° 0.1 mm 3 mps 733 mmHg 79%
11:00 +25°C° 0.7 mm 3 mps 733 mmHg 77%
12:00 +26°C° 0.7 mm 3 mps 732 mmHg 75%
13:00 +26°C° 0.7 mm 3 mps 732 mmHg 73%
14:00 +27°C° 0.4 mm 3 mps 732 mmHg 71%
15:00 +27°C° 0.4 mm 3 mps 732 mmHg 69%
16:00 +27°C° 0.4 mm 3 mps 731 mmHg 67%
17:00 +26°C° 0.4 mm 2 mps 731 mmHg 72%
18:00 +24°C° 0.4 mm 2 mps 731 mmHg 78%
19:00 +23°C° 0.4 mm 1 mps 731 mmHg 83%
20:00 +22°C° 0.2 mm 1 mps 731 mmHg 85%
21:00 +21°C° 0.2 mm 1 mps 732 mmHg 86%
22:00 +20°C° 0.2 mm 1 mps 732 mmHg 87%
23:00 +20°C° 0 mm 1 mps 732 mmHg 88%

16 August, Sunday

Time Temperature Precipitation Wind Pressure Humidity
00:00 +19°C° 0 mm 1 mps 732 mmHg 88%
01:00 +19°C° 0 mm 1 mps 732 mmHg 89%
02:00 +19°C° 0 mm 1 mps 732 mmHg 89%
03:00 +16°C° 0 mm 0 mps 731 mmHg 90%
04:00 +16°C° 0 mm 0 mps 731 mmHg 90%
05:00 +17°C° 0 mm 0 mps 731 mmHg 89%
06:00 +18°C° 0 mm 0 mps 732 mmHg 87%
07:00 +19°C° 0 mm 0 mps 732 mmHg 86%
08:00 +21°C° 0 mm 0 mps 732 mmHg 80%
09:00 +23°C° 0 mm 0 mps 732 mmHg 74%
10:00 +26°C° 0 mm 1 mps 732 mmHg 68%
11:00 +27°C° 0 mm 1 mps 732 mmHg 64%
12:00 +28°C° 0 mm 1 mps 731 mmHg 60%
13:00 +29°C° 0 mm 1 mps 731 mmHg 56%
14:00 +29°C° 0 mm 1 mps 731 mmHg 56%
15:00 +29°C° 0 mm 1 mps 731 mmHg 55%
16:00 +29°C° 0 mm 1 mps 731 mmHg 54%
17:00 +27°C° 0 mm 1 mps 731 mmHg 61%
18:00 +23°C° 0 mm 0 mps 731 mmHg 68%
19:00 +22°C° 0 mm 0 mps 731 mmHg 74%
20:00 +21°C° 0 mm 0 mps 731 mmHg 76%
21:00 +20°C° 0 mm 0 mps 731 mmHg 79%
22:00 +21°C° 0 mm 1 mps 731 mmHg 81%
23:00 +21°C° 0 mm 1 mps 731 mmHg 82%

17 August, Monday

Time Temperature Precipitation Wind Pressure Humidity
00:00 +18°C° 0 mm 0 mps 731 mmHg 84%
01:00 +18°C° 0 mm 0 mps 731 mmHg 85%
02:00 +17°C° 0 mm 0 mps 731 mmHg 86%
03:00 +17°C° 0 mm 0 mps 730 mmHg 87%
04:00 +17°C° 0 mm 0 mps 730 mmHg 87%
05:00 +18°C° 0 mm 0 mps 730 mmHg 85%
06:00 +19°C° 0 mm 0 mps 730 mmHg 83%
07:00 +20°C° 0 mm 0 mps 730 mmHg 81%
08:00 +22°C° 0 mm 0 mps 730 mmHg 76%
09:00 +23°C° 0 mm 0 mps 730 mmHg 70%
10:00 +27°C° 0 mm 1 mps 730 mmHg 64%
11:00 +28°C° 0.1 mm 1 mps 730 mmHg 61%
12:00 +29°C° 0.1 mm 1 mps 730 mmHg 57%
13:00 +30°C° 0.1 mm 1 mps 730 mmHg 54%
14:00 +29°C° 0.2 mm 1 mps 729 mmHg 57%
15:00 +29°C° 0.2 mm 1 mps 729 mmHg 60%
16:00 +29°C° 0.2 mm 1 mps 729 mmHg 64%
17:00 +27°C° 1.1 mm 1 mps 729 mmHg 70%
18:00 +25°C° 1.1 mm 2 mps 729 mmHg 77%
19:00 +23°C° 1.1 mm 2 mps 729 mmHg 84%
20:00 +21°C° 1.2 mm 2 mps 729 mmHg 87%
21:00 +20°C° 1.2 mm 3 mps 730 mmHg 91%
22:00 +19°C° 1.2 mm 3 mps 730 mmHg 95%
23:00 +19°C° 4.1 mm 3 mps 730 mmHg 96%

18 August, Tuesday

Time Temperature Precipitation Wind Pressure Humidity
00:00 +19°C° 4.1 mm 4 mps 730 mmHg 96%
01:00 +18°C° 4.1 mm 4 mps 730 mmHg 97%
02:00 +18°C° 5.7 mm 4 mps 730 mmHg 97%
03:00 +18°C° 5.7 mm 4 mps 730 mmHg 96%
04:00 +17°C° 5.7 mm 3 mps 730 mmHg 96%
05:00 +17°C° 1 mm 3 mps 730 mmHg 96%
06:00 +17°C° 1 mm 2 mps 730 mmHg 96%
07:00 +18°C° 1 mm 2 mps 730 mmHg 96%
08:00 +18°C° 1 mm 2 mps 730 mmHg 95%
09:00 +18°C° 1 mm 2 mps 730 mmHg 95%
10:00 +18°C° 1 mm 2 mps 730 mmHg 95%
11:00 +18°C° 0.4 mm 2 mps 730 mmHg 92%
12:00 +19°C° 0.4 mm 2 mps 730 mmHg 90%
13:00 +19°C° 0.4 mm 2 mps 730 mmHg 87%
14:00 +20°C° 0.3 mm 2 mps 730 mmHg 85%
15:00 +20°C° 0.3 mm 2 mps 730 mmHg 82%
16:00 +21°C° 0.3 mm 3 mps 730 mmHg 79%
17:00 +20°C° 0.4 mm 3 mps 730 mmHg 82%
18:00 +19°C° 0.4 mm 3 mps 730 mmHg 86%
19:00 +18°C° 0.4 mm 4 mps 730 mmHg 89%
20:00 +17°C° 0 mm 3 mps 730 mmHg 89%
21:00 +16°C° 0 mm 3 mps 731 mmHg 89%
22:00 +16°C° 0 mm 2 mps 731 mmHg 89%
23:00 +16°C° 0 mm 3 mps 731 mmHg 90%
Show more